This is the latest recevied weather packets stored in our database for station/object OK1JIL-13. If no packets are shown the sender has not sent any weather packets the latest 10 day(s).
| Time | Temp. | Humidity | Pressure | Rain* | Wind** | Luminosity | Snow |
|---|---|---|---|---|---|---|---|
| 1777125778 | 16.67° C | 24% | 1013.7 hPa | - | - | - | - |
| 1777125178 | 16.11° C | 24% | 1013.6 hPa | - | - | - | - |
| 1777124578 | 15.56° C | 24% | 1013.7 hPa | - | - | - | - |
| 1777123978 | 16.11° C | 23% | 1013.8 hPa | - | - | - | - |
| 1777123378 | 16.11° C | 23% | 1014 hPa | - | - | - | - |
| 1777122778 | 15.56° C | 23% | 1014.1 hPa | - | - | - | - |
| 1777122179 | 15.56° C | 20% | 1014.1 hPa | - | - | - | - |
| 1777121578 | 16.11° C | 23% | 1014.2 hPa | - | - | - | - |
| 1777120978 | 16.67° C | 23% | 1014.3 hPa | - | - | - | - |
| 1777120378 | 16.67° C | 23% | 1014.4 hPa | - | - | - | - |
| 1777119778 | 16.67° C | 22% | 1014.4 hPa | - | - | - | - |
| 1777119178 | 16.67° C | 23% | 1014.4 hPa | - | - | - | - |
| 1777118578 | 16.67° C | 23% | 1014.3 hPa | - | - | - | - |
| 1777117978 | 17.22° C | 23% | 1014.5 hPa | - | - | - | - |
| 1777117378 | 16.11° C | 26% | 1014.4 hPa | - | - | - | - |
| 1777116778 | 17.22° C | 25% | 1014.4 hPa | - | - | - | - |
| 1777116178 | 17.22° C | 24% | 1014.4 hPa | - | - | - | - |
| 1777115578 | 17.78° C | 22% | 1014.5 hPa | - | - | - | - |
| 1777114978 | 16.67° C | 24% | 1014.4 hPa | - | - | - | - |
| 1777114378 | 16.67° C | 24% | 1014.5 hPa | - | - | - | - |
| 1777113778 | 17.22° C | 25% | 1014.6 hPa | - | - | - | - |
| 1777113178 | 16.67° C | 26% | 1014.4 hPa | - | - | - | - |
| 1777112578 | 16.11° C | 25% | 1014.5 hPa | - | - | - | - |
| 1777111978 | 17.22° C | 23% | 1014.5 hPa | - | - | - | - |
| 1777111382 | 15° C | 25% | 1014.6 hPa | - | - | - | - |
* Rain since midnight (hover to see other rain measurements)
** Current wind speed in m/s (hover to see current wind gust speed)